Location: Jangalapalle
(16.8036°N, 80.6370°E)
Time: 12:18:35
(UTC+00:00)

Hubble Space Telescope - Pass Details

Date: 05 August 2024
Orbit: 506 x 509 km, 28.5° (Epoch: 08 September)

Event Time Altitude Azimuth Distance (km) Brightness Sun altitude
Exits shadow 22:51:38 15° 166° (SSE) 1,446 2.8 -20.3°
Maximum altitude 22:52:34 16° 149° (SSE) 1,394 2.9 -20.1°
Drops below altitude 10° 22:55:02 10° 111° (ESE) 1,722 3.9 -19.6°
Sets 22:57:58 0° 89° (E) 2,610 5.5 -18.9°
